Language: 


Des rapports , des résumés tant et plus, au choix de chacun....


Données statistiques de la station
Quotidien Rapport Décembre 22, 2017 Unités:  Anglais    Métrique   les deux
« Précédent Jour
Suivant Jour »
Quotidien Hebdomadaire Mensuel Annuel Actuel
  Haut: Bas: Moyen:
Température: TemperatureC °F 9.0 °F 9.9 °F
Pt de rosée: DewpointC °F 9.0 °F 10 °F
Humidité: Humidity % 98 % 98 %
Vitesse du vent: WindSpeedKMH mph 0.0 mph 1.4 mph
Rafales: WindSpeedGustKMH mph - -
Vent:- - West
Pression: PressurehPa in 1032.1 in -
Précipitation: 0.0 in    
Historical Graphs
 
 
Données statistiques pour Décembre 22, 2017
Heure Température Point de rosée Pression Vent Vitesse du vent Refales Humidité Pluie (taux horaire)
TemperatureC °F DewpointC °F PressurehPa in Calm     Humidity % HourlyPrecipMM in
00:01 10.5 °F 11.0 °F 1034.1 in Calm   12.2 mph 98 % 0.0 in
00:03 10.5 °F 11.0 °F 1034.1 in WSW 7.9 mph 12.2 mph 98 % 0.0 in
00:07 10.5 °F 11.0 °F 1034.1 in West 7.9 mph 13.0 mph 98 % 0.0 in
00:09 10.5 °F 11.0 °F 1034.1 in WSW 9.0 mph 13.0 mph 98 % 0.0 in
00:14 10.5 °F 11.0 °F 1034.1 in WSW 11.9 mph 13.0 mph 98 % 0.0 in
00:19 10.4 °F 10.0 °F 1034.1 in WSW 10.8 mph 12.2 mph 98 % 0.0 in
00:20 10.4 °F 10.0 °F 1034.1 in WSW 9.7 mph 12.2 mph 98 % 0.0 in
00:21 10.4 °F 10.0 °F 1034.1 in West 9.3 mph 12.2 mph 98 % 0.0 in
00:25 10.4 °F 10.0 °F 1034.1 in WSW 8.7 mph 14.0 mph 98 % 0.0 in
00:30 10.4 °F 10.0 °F 1034.1 in WSW 14.0 mph 14.0 mph 98 % 0.0 in
00:31 10.4 °F 10.0 °F 1034.1 in WSW 8.7 mph 14.0 mph 98 % 0.0 in
00:35 10.4 °F 10.0 °F 1034.1 in Calm   14.0 mph 98 % 0.0 in
00:37 10.4 °F 10.0 °F 1034.1 in Calm   14.0 mph 98 % 0.0 in
00:42 10.4 °F 10.0 °F 1033.1 in Calm   12.2 mph 98 % 0.0 in
00:44 10.3 °F 10.0 °F 1033.1 in West 6.4 mph 11.1 mph 98 % 0.0 in
00:49 10.3 °F 10.0 °F 1033.1 in Calm   7.6 mph 98 % 0.0 in
00:50 10.3 °F 10.0 °F 1033.1 in Calm   7.6 mph 98 % 0.0 in
00:55 10.3 °F 10.0 °F 1034.1 in Calm   6.4 mph 98 % 0.0 in
01:00 10.2 °F 10.0 °F 1034.1 in Calm   11.1 mph 98 % 0.0 in
01:01 10.2 °F 10.0 °F 1034.1 in Calm   11.1 mph 98 % 0.0 in
01:04 10.2 °F 10.0 °F 1034.1 in West 5.8 mph 11.9 mph 98 % 0.0 in
01:07 10.2 °F 10.0 °F 1034.1 in Calm   11.9 mph 98 % 0.0 in
01:12 10.2 °F 10.0 °F 1033.1 in Calm   11.9 mph 98 % 0.0 in
01:16 10.1 °F 10.0 °F 1033.1 in WSW 6.9 mph 10.1 mph 98 % 0.0 in
01:19 10.1 °F 10.0 °F 1033.1 in West 9.3 mph 10.1 mph 98 % 0.0 in
01:24 10.1 °F 10.0 °F 1033.1 in WSW 5.0 mph 10.1 mph 98 % 0.0 in
01:25 10.1 °F 10.0 °F 1034.1 in WSW 2.6 mph 9.7 mph 98 % 0.0 in
01:27 10.1 °F 10.0 °F 1034.1 in West 4.0 mph 9.7 mph 98 % 0.0 in
01:32 10.1 °F 10.0 °F 1034.1 in Calm   9.7 mph 98 % 0.0 in
01:33 10.1 °F 10.0 °F 1034.1 in Calm   9.7 mph 98 % 0.0 in
01:35 10.0 °F 10.0 °F 1034.1 in West 2.1 mph 9.7 mph 98 % 0.0 in
01:39 10.0 °F 10.0 °F 1034.1 in Calm   7.6 mph 98 % 0.0 in
01:44 10.0 °F 10.0 °F 1033.1 in Calm   6.4 mph 98 % 0.0 in
01:45 10.0 °F 10.0 °F 1033.1 in Calm   6.4 mph 98 % 0.0 in
01:50 9.9 °F 10.0 °F 1033.1 in Calm   8.7 mph 98 % 0.0 in
01:53 9.9 °F 10.0 °F 1033.1 in WSW 6.4 mph 8.7 mph 98 % 0.0 in
01:59 9.9 °F 10.0 °F 1033.1 in West 2.6 mph 10.5 mph 98 % 0.0 in
02:00 9.9 °F 10.0 °F 1033.1 in Calm   10.5 mph 98 % 0.0 in
02:05 9.9 °F 10.0 °F 1033.1 in West 2.6 mph 10.5 mph 98 % 0.0 in
02:07 9.9 °F 10.0 °F 1033.1 in Calm   7.9 mph 98 % 0.0 in
02:12 9.9 °F 10.0 °F 1033.1 in Calm   6.9 mph 98 % 0.0 in
02:17 9.9 °F 10.0 °F 1033.1 in WSW 6.9 mph 10.1 mph 98 % 0.0 in
02:21 9.9 °F 10.0 °F 1033.1 in Calm   10.1 mph 98 % 0.0 in
02:26 9.9 °F 10.0 °F 1033.1 in WSW 10.1 mph 10.5 mph 98 % 0.0 in
02:28 9.9 °F 10.0 °F 1033.1 in WSW 9.3 mph 10.5 mph 98 % 0.0 in
02:33 9.9 °F 10.0 °F 1033.1 in Calm   12.6 mph 98 % 0.0 in
02:34 9.9 °F 10.0 °F 1033.1 in Calm   12.6 mph 98 % 0.0 in
02:38 9.9 °F 10.0 °F 1033.1 in West 9.0 mph 12.6 mph 98 % 0.0 in
02:43 9.9 °F 10.0 °F 1033.1 in SW 9.3 mph 9.3 mph 98 % 0.0 in
02:44 9.9 °F 10.0 °F 1033.1 in West 9.0 mph 9.3 mph 98 % 0.0 in
02:49 9.8 °F 10.0 °F 1033.1 in WSW 9.0 mph 10.5 mph 98 % 0.0 in
02:50 9.8 °F 10.0 °F 1033.1 in Calm   10.5 mph 98 % 0.0 in
02:55 9.8 °F 10.0 °F 1033.1 in WSW 9.7 mph 10.5 mph 98 % 0.0 in
02:59 9.8 °F 10.0 °F 1033.1 in Calm   10.5 mph 98 % 0.0 in
03:01 9.8 °F 10.0 °F 1033.1 in West 10.5 mph 10.5 mph 98 % 0.0 in
03:04 9.8 °F 10.0 °F 1033.1 in West 1.4 mph 12.2 mph 98 % 0.0 in
03:09 9.8 °F 10.0 °F 1033.1 in Calm   12.2 mph 98 % 0.0 in
03:13 9.8 °F 10.0 °F 1032.1 in West 7.9 mph 11.1 mph 98 % 0.0 in
03:17 9.8 °F 10.0 °F 1032.1 in Calm   10.5 mph 98 % 0.0 in
03:18 9.8 °F 10.0 °F 1032.1 in WSW 7.6 mph 10.5 mph 98 % 0.0 in
03:23 9.8 °F 10.0 °F 1032.1 in Calm   9.7 mph 98 % 0.0 in
03:25 9.8 °F 10.0 °F 1032.1 in WSW 7.9 mph 9.7 mph 98 % 0.0 in
03:30 9.8 °F 10.0 °F 1033.1 in Calm   10.8 mph 98 % 0.0 in
03:31 9.8 °F 10.0 °F 1033.1 in Calm   10.8 mph 98 % 0.0 in
03:36 9.8 °F 10.0 °F 1033.1 in West 9.7 mph 13.0 mph 98 % 0.0 in
03:37 9.8 °F 10.0 °F 1033.1 in West 6.9 mph 13.0 mph 98 % 0.0 in
03:38 9.8 °F 10.0 °F 1033.1 in West 10.8 mph 13.0 mph 98 % 0.0 in
03:42 9.7 °F 10.0 °F 1033.1 in West 9.3 mph 13.0 mph 98 % 0.0 in
03:47 9.7 °F 10.0 °F 1033.1 in West 6.4 mph 10.8 mph 98 % 0.0 in
03:52 9.7 °F 10.0 °F 1033.1 in WSW 7.9 mph 10.5 mph 98 % 0.0 in
03:54 9.7 °F 10.0 °F 1033.1 in WSW 1.4 mph 12.2 mph 98 % 0.0 in
03:59 9.7 °F 10.0 °F 1033.1 in WSW 6.4 mph 12.2 mph 98 % 0.0 in
04:01 9.7 °F 10.0 °F 1033.1 in WSW 6.9 mph 12.2 mph 98 % 0.0 in
04:06 9.7 °F 10.0 °F 1033.1 in Calm   9.7 mph 98 % 0.0 in
04:08 9.7 °F 10.0 °F 1033.1 in WSW 5.0 mph 10.1 mph 98 % 0.0 in
04:12 9.7 °F 10.0 °F 1033.1 in Calm   10.5 mph 98 % 0.0 in
04:23 9.7 °F 10.0 °F 1033.1 in WSW 10.8 mph 12.2 mph 98 % 0.0 in
04:28 9.7 °F 10.0 °F 1033.1 in Calm   12.2 mph 98 % 0.0 in
04:32 9.7 °F 10.0 °F 1033.1 in West 4.3 mph 12.2 mph 98 % 0.0 in
04:37 9.7 °F 10.0 °F 1033.1 in WSW 9.7 mph 10.1 mph 98 % 0.0 in
04:42 9.7 °F 10.0 °F 1033.1 in West 4.0 mph 10.5 mph 98 % 0.0 in
04:47 9.7 °F 10.0 °F 1033.1 in Calm   10.5 mph 98 % 0.0 in
04:51 9.7 °F 10.0 °F 1033.1 in WSW 4.0 mph 10.5 mph 98 % 0.0 in
04:52 9.7 °F 10.0 °F 1033.1 in WSW 5.8 mph 10.5 mph 98 % 0.0 in
04:57 9.7 °F 10.0 °F 1033.1 in Calm   15.1 mph 98 % 0.0 in
04:59 9.7 °F 10.0 °F 1033.1 in West 6.4 mph 15.1 mph 98 % 0.0 in
05:05 9.6 °F 10.0 °F 1033.1 in West 10.1 mph 10.5 mph 98 % 0.0 in
05:06 9.7 °F 10.0 °F 1033.1 in WSW 7.9 mph 10.5 mph 98 % 0.0 in
05:12 9.6 °F 10.0 °F 1033.1 in WSW 9.3 mph 10.1 mph 98 % 0.0 in
05:17 9.6 °F 10.0 °F 1033.1 in West 6.1 mph 10.1 mph 98 % 0.0 in
05:20 9.6 °F 10.0 °F 1033.1 in West 5.8 mph 9.7 mph 98 % 0.0 in
05:24 9.6 °F 10.0 °F 1033.1 in WSW 5.5 mph 7.9 mph 98 % 0.0 in
05:25 9.6 °F 10.0 °F 1033.1 in Calm   7.9 mph 98 % 0.0 in
05:30 9.6 °F 10.0 °F 1033.1 in Calm   7.9 mph 98 % 0.0 in
05:36 9.6 °F 10.0 °F 1033.1 in Calm   8.7 mph 98 % 0.0 in
05:41 9.6 °F 10.0 °F 1033.1 in Calm   8.7 mph 98 % 0.0 in
05:46 9.6 °F 10.0 °F 1033.1 in Calm   6.9 mph 98 % 0.0 in
05:51 9.6 °F 10.0 °F 1033.1 in Calm   6.9 mph 98 % 0.0 in
05:52 9.6 °F 10.0 °F 1033.1 in Calm   6.9 mph 98 % 0.0 in
05:57 9.6 °F 10.0 °F 1033.1 in Calm   8.7 mph 98 % 0.0 in
06:01 9.6 °F 10.0 °F 1033.1 in Calm   8.7 mph 98 % 0.0 in
06:06 9.6 °F 10.0 °F 1033.1 in Calm     98 % 0.0 in
06:07 9.6 °F 10.0 °F 1033.1 in Calm     98 % 0.0 in
06:12 9.6 °F 10.0 °F 1033.1 in WSW 6.1 mph 6.4 mph 98 % 0.0 in
06:14 9.6 °F 10.0 °F 1033.1 in Calm   7.2 mph 98 % 0.0 in
06:19 9.6 °F 10.0 °F 1033.1 in West 5.0 mph 9.0 mph 98 % 0.0 in
06:21 9.6 °F 10.0 °F 1033.1 in Calm   9.0 mph 98 % 0.0 in
06:29 9.5 °F 10.0 °F 1033.1 in Calm   6.9 mph 98 % 0.0 in
06:34 9.5 °F 10.0 °F 1033.1 in Calm   5.5 mph 98 % 0.0 in
06:36 9.5 °F 10.0 °F 1033.1 in Calm     98 % 0.0 in
06:41 9.5 °F 10.0 °F 1033.1 in Calm     98 % 0.0 in
06:46 9.5 °F 10.0 °F 1033.1 in West 1.8 mph 4.0 mph 98 % 0.0 in
06:47 9.5 °F 10.0 °F 1033.1 in West 1.8 mph 4.0 mph 98 % 0.0 in
06:52 9.5 °F 10.0 °F 1033.1 in Calm   8.7 mph 98 % 0.0 in
06:53 9.5 °F 10.0 °F 1033.1 in Calm   8.7 mph 98 % 0.0 in
06:59 9.5 °F 10.0 °F 1033.1 in Calm   5.5 mph 98 % 0.0 in
07:04 9.5 °F 10.0 °F 1033.1 in Calm   3.5 mph 98 % 0.0 in
07:11 9.5 °F 10.0 °F 1033.1 in Calm   5.0 mph 98 % 0.0 in
07:12 9.5 °F 10.0 °F 1033.1 in Calm   5.0 mph 98 % 0.0 in
07:16 9.4 °F 9.0 °F 1033.1 in Calm   5.0 mph 98 % 0.0 in
07:17 9.4 °F 9.0 °F 1033.1 in Calm   5.0 mph 98 % 0.0 in
07:22 9.4 °F 9.0 °F 1033.1 in Calm   2.6 mph 98 % 0.0 in
07:24 9.4 °F 9.0 °F 1033.1 in Calm     98 % 0.0 in
07:27 9.4 °F 9.0 °F 1033.1 in Calm     98 % 0.0 in
07:31 9.4 °F 9.0 °F 1033.1 in Calm     98 % 0.0 in
07:36 9.4 °F 9.0 °F 1033.1 in Calm     98 % 0.0 in
07:41 9.3 °F 9.0 °F 1034.1 in Calm     98 % 0.0 in
07:42 9.3 °F 9.0 °F 1034.1 in Calm   1.4 mph 98 % 0.0 in
07:48 9.3 °F 9.0 °F 1034.1 in West 2.1 mph 3.2 mph 98 % 0.0 in
07:53 9.3 °F 9.0 °F 1034.1 in Calm   4.0 mph 98 % 0.0 in
07:58 9.3 °F 9.0 °F 1032.1 in Calm   4.0 mph 98 % 0.0 in
08:00 9.3 °F 9.0 °F 1032.1 in Calm     98 % 0.0 in
08:05 9.3 °F 9.0 °F 1032.1 in Calm     98 % 0.0 in
08:10 9.3 °F 9.0 °F 1032.1 in Calm     98 % 0.0 in
08:12 9.3 °F 9.0 °F 1033.1 in Calm     98 % 0.0 in
08:15 9.3 °F 9.0 °F 1033.1 in Calm     98 % 0.0 in
08:17 9.3 °F 9.0 °F 1033.1 in Calm     98 % 0.0 in
08:22 9.3 °F 9.0 °F 1033.1 in Calm     98 % 0.0 in
08:24 9.2 °F 9.0 °F 1033.1 in Calm     98 % 0.0 in
08:29 9.2 °F 9.0 °F 1033.1 in Calm     98 % 0.0 in
08:30 9.2 °F 9.0 °F 1033.1 in Calm     98 % 0.0 in
08:31 9.2 °F 9.0 °F 1033.1 in Calm     98 % 0.0 in
08:36 9.2 °F 9.0 °F 1033.1 in Calm     98 % 0.0 in
08:41 9.2 °F 9.0 °F 1032.1 in Calm     98 % 0.0 in
08:46 9.2 °F 9.0 °F 1032.1 in Calm     98 % 0.0 in
08:50 9.2 °F 9.0 °F 1032.1 in Calm     98 % 0.0 in
08:51 9.2 °F 9.0 °F 1032.1 in Calm     98 % 0.0 in
08:58 9.2 °F 9.0 °F 1033.1 in Calm   3.2 mph 98 % 0.0 in
08:59 9.2 °F 9.0 °F 1033.1 in Calm   3.2 mph 98 % 0.0 in
09:04 9.2 °F 9.0 °F 1033.1 in Calm   5.0 mph 98 % 0.0 in
09:09 9.2 °F 9.0 °F 1033.1 in Calm   5.0 mph 98 % 0.0 in
09:20 9.3 °F 9.0 °F 1033.1 in Calm   1.8 mph 98 % 0.0 in
09:25 9.3 °F 9.0 °F 1033.1 in Calm   1.8 mph 98 % 0.0 in
09:32 9.3 °F 9.0 °F 1033.1 in Calm   4.0 mph 98 % 0.0 in
09:37 9.3 °F 9.0 °F 1033.1 in Calm   4.0 mph 98 % 0.0 in
09:38 9.3 °F 9.0 °F 1033.1 in Calm   4.0 mph 98 % 0.0 in
09:43 9.3 °F 9.0 °F 1034.1 in West 1.4 mph 1.4 mph 98 % 0.0 in
09:47 9.3 °F 9.0 °F 1034.1 in Calm   5.0 mph 98 % 0.0 in
09:52 9.3 °F 9.0 °F 1034.1 in Calm   5.8 mph 98 % 0.0 in
09:53 9.3 °F 9.0 °F 1034.1 in Calm   5.8 mph 98 % 0.0 in
09:59 9.4 °F 9.0 °F 1034.1 in Calm   5.8 mph 98 % 0.0 in
10:04 9.4 °F 9.0 °F 1034.1 in Calm   4.7 mph 98 % 0.0 in
10:09 9.4 °F 9.0 °F 1034.1 in Calm   6.4 mph 98 % 0.0 in
10:10 9.4 °F 9.0 °F 1034.1 in Calm   6.4 mph 98 % 0.0 in
10:15 9.4 °F 9.0 °F 1034.1 in Calm   6.4 mph 98 % 0.0 in
10:17 9.4 °F 9.0 °F 1034.1 in NW 2.1 mph 5.8 mph 98 % 0.0 in
10:22 9.5 °F 10.0 °F 1034.1 in Calm   4.7 mph 98 % 0.0 in
10:30 9.5 °F 10.0 °F 1035.1 in NNW 4.7 mph 5.5 mph 98 % 0.0 in
10:32 9.5 °F 10.0 °F 1035.1 in Calm   5.5 mph 98 % 0.0 in
10:38 9.5 °F 10.0 °F 1035.1 in Calm   5.5 mph 98 % 0.0 in
10:41 9.5 °F 10.0 °F 1035.1 in Calm     98 % 0.0 in
10:46 9.6 °F 10.0 °F 1035.1 in Calm     98 % 0.0 in
10:49 9.7 °F 10.0 °F 1035.1 in Calm     98 % 0.0 in
10:54 9.7 °F 10.0 °F 1035.1 in Calm     98 % 0.0 in
10:55 9.8 °F 10.0 °F 1035.1 in Calm     98 % 0.0 in
11:00 9.9 °F 10.0 °F 1034.1 in Calm     98 % 0.0 in
11:02 9.9 °F 10.0 °F 1034.1 in Calm     98 % 0.0 in
11:07 10.0 °F 10.0 °F 1034.1 in Calm     98 % 0.0 in
11:10 10.0 °F 10.0 °F 1034.1 in Calm     98 % 0.0 in
11:19 10.1 °F 10.0 °F 1035.1 in Calm     98 % 0.0 in
11:24 10.2 °F 10.0 °F 1035.1 in Calm     98 % 0.0 in
11:25 10.3 °F 10.0 °F 1035.1 in WNW 5.0 mph 5.0 mph 98 % 0.0 in
11:30 10.3 °F 10.0 °F 1035.1 in Calm   5.0 mph 98 % 0.0 in
11:40 10.4 °F 10.0 °F 1035.1 in Calm   6.1 mph 98 % 0.0 in
11:42 10.4 °F 10.0 °F 1035.1 in Calm   6.1 mph 98 % 0.0 in
11:47 10.4 °F 10.0 °F 1035.1 in North 3.5 mph 6.4 mph 98 % 0.0 in
11:49 10.3 °F 10.0 °F 1035.1 in Calm   6.4 mph 98 % 0.0 in
11:53 10.3 °F 10.0 °F 1035.1 in Calm   9.0 mph 98 % 0.0 in
11:58 10.4 °F 10.0 °F 1035.1 in Calm   9.0 mph 98 % 0.0 in
12:00 10.4 °F 10.0 °F 1035.1 in Calm   9.0 mph 98 % 0.0 in
12:05 10.4 °F 10.0 °F 1035.1 in North 1.8 mph 9.3 mph 98 % 0.0 in
12:07 10.4 °F 10.0 °F 1035.1 in Calm   9.3 mph 98 % 0.0 in
12:11 10.4 °F 10.0 °F 1035.1 in Calm   9.3 mph 98 % 0.0 in
12:16 10.5 °F 11.0 °F 1035.1 in NNW 1.4 mph 8.7 mph 98 % 0.0 in
12:18 10.5 °F 11.0 °F 1035.1 in Calm   8.7 mph 98 % 0.0 in
12:23 10.5 °F 11.0 °F 1035.1 in Calm   8.7 mph 98 % 0.0 in
12:28 10.5 °F 11.0 °F 1035.1 in WNW 4.3 mph 7.6 mph 98 % 0.0 in
12:29 10.5 °F 11.0 °F 1035.1 in Calm   7.6 mph 98 % 0.0 in
12:34 10.5 °F 11.0 °F 1035.1 in NNW 1.8 mph 6.1 mph 98 % 0.0 in
12:38 10.5 °F 11.0 °F 1035.1 in Calm   6.1 mph 98 % 0.0 in
12:43 10.5 °F 11.0 °F 1035.1 in NW 3.2 mph 5.8 mph 98 % 0.0 in
12:44 10.5 °F 11.0 °F 1035.1 in Calm   5.8 mph 98 % 0.0 in
12:50 10.5 °F 11.0 °F 1035.1 in North 3.2 mph 5.8 mph 98 % 0.0 in
12:53 10.5 °F 11.0 °F 1035.1 in NNW 6.9 mph 6.9 mph 98 % 0.0 in
12:59 10.5 °F 11.0 °F 1035.1 in Calm   8.7 mph 98 % 0.0 in
13:04 10.5 °F 11.0 °F 1035.1 in Calm   8.7 mph 98 % 0.0 in
13:05 10.4 °F 10.0 °F 1035.1 in Calm   8.7 mph 98 % 0.0 in
13:08 10.4 °F 10.0 °F 1035.1 in Calm   6.9 mph 98 % 0.0 in
13:12 10.5 °F 11.0 °F 1035.1 in Calm   6.9 mph 98 % 0.0 in
13:17 10.5 °F 11.0 °F 1035.1 in West 1.4 mph 6.1 mph 98 % 0.0 in
13:18 10.5 °F 11.0 °F 1035.1 in Calm   6.1 mph 98 % 0.0 in
13:23 10.5 °F 11.0 °F 1035.1 in Calm   6.1 mph 98 % 0.0 in
13:31 10.5 °F 11.0 °F 1035.1 in Calm   4.7 mph 98 % 0.0 in
13:39 10.6 °F 11.0 °F 1035.1 in Calm   1.8 mph 98 % 0.0 in
13:45 10.7 °F 11.0 °F 1035.1 in Calm     98 % 0.0 in
13:50 10.7 °F 11.0 °F 1035.1 in Calm     98 % 0.0 in
13:53 10.8 °F 11.0 °F 1035.1 in Calm   1.4 mph 98 % 0.0 in
13:58 10.8 °F 11.0 °F 1036.1 in WNW 4.7 mph 5.0 mph 98 % 0.0 in
13:59 10.8 °F 11.0 °F 1036.1 in NNW 4.3 mph 5.0 mph 98 % 0.0 in
14:02 10.8 °F 11.0 °F 1036.1 in Calm   5.0 mph 98 % 0.0 in
14:07 10.9 °F 11.0 °F 1036.1 in Calm   4.7 mph 98 % 0.0 in
14:13 11.0 °F 11.0 °F 1035.1 in West 1.4 mph 6.1 mph 98 % 0.0 in
14:18 11.0 °F 11.0 °F 1035.1 in Calm   6.1 mph 98 % 0.0 in
14:22 11.1 °F 11.0 °F 1035.1 in Calm   6.1 mph 98 % 0.0 in
14:27 11.2 °F 11.0 °F 1035.1 in Calm   6.4 mph 98 % 0.0 in
14:28 11.2 °F 11.0 °F 1035.1 in Calm   6.4 mph 98 % 0.0 in
14:32 11.3 °F 11.0 °F 1035.1 in Calm   6.4 mph 98 % 0.0 in
14:37 11.3 °F 11.0 °F 1035.1 in Calm   5.8 mph 98 % 0.0 in
14:38 11.3 °F 11.0 °F 1035.1 in Calm   5.8 mph 98 % 0.0 in
14:42 11.2 °F 11.0 °F 1035.1 in WNW 1.8 mph 5.0 mph 98 % 0.0 in
14:44 11.2 °F 11.0 °F 1035.1 in Calm   5.0 mph 98 % 0.0 in
14:49 11.2 °F 11.0 °F 1035.1 in Calm   5.8 mph 98 % 0.0 in
14:50 11.2 °F 11.0 °F 1035.1 in Calm   5.8 mph 98 % 0.0 in
14:55 11.2 °F 11.0 °F 1035.1 in Calm   5.8 mph 98 % 0.0 in
14:56 11.2 °F 11.0 °F 1035.1 in WNW 3.5 mph 5.8 mph 98 % 0.0 in
14:59 11.1 °F 11.0 °F 1035.1 in Calm   4.0 mph 98 % 0.0 in
15:04 11.1 °F 11.0 °F 1035.1 in West 7.2 mph 7.2 mph 98 % 0.0 in
15:10 11.1 °F 11.0 °F 1035.1 in West 1.8 mph 7.2 mph 98 % 0.0 in
15:12 11.0 °F 11.0 °F 1034.1 in Calm   7.2 mph 98 % 0.0 in
15:17 11.0 °F 11.0 °F 1034.1 in Calm   5.8 mph 98 % 0.0 in
15:19 11.0 °F 11.0 °F 1034.1 in West 6.4 mph 6.4 mph 98 % 0.0 in
15:22 11.0 °F 11.0 °F 1034.1 in Calm   7.6 mph 98 % 0.0 in
15:24 10.9 °F 11.0 °F 1034.1 in Calm   7.6 mph 98 % 0.0 in
15:29 10.9 °F 11.0 °F 1034.1 in Calm   7.6 mph 98 % 0.0 in
15:30 10.9 °F 11.0 °F 1034.1 in West 3.5 mph 7.6 mph 98 % 0.0 in
15:36 10.8 °F 11.0 °F 1034.1 in Calm   6.9 mph 98 % 0.0 in
15:39 10.8 °F 11.0 °F 1034.1 in Calm   6.9 mph 98 % 0.0 in
15:41 10.8 °F 11.0 °F 1035.1 in Calm   6.9 mph 98 % 0.0 in
15:46 10.7 °F 11.0 °F 1035.1 in Calm   6.4 mph 98 % 0.0 in
15:50 10.7 °F 11.0 °F 1035.1 in Calm   6.4 mph 98 % 0.0 in
15:51 10.7 °F 11.0 °F 1035.1 in Calm   6.4 mph 98 % 0.0 in
15:56 10.7 °F 11.0 °F 1034.1 in West 6.9 mph 6.9 mph 98 % 0.0 in
15:57 10.7 °F 11.0 °F 1034.1 in WSW 1.8 mph 6.9 mph 98 % 0.0 in
15:59 10.7 °F 11.0 °F 1034.1 in Calm   6.9 mph 98 % 0.0 in
16:04 10.6 °F 11.0 °F 1034.1 in West 6.9 mph 7.9 mph 98 % 0.0 in
16:06 10.6 °F 11.0 °F 1034.1 in WSW 4.3 mph 7.9 mph 98 % 0.0 in
16:08 10.6 °F 11.0 °F 1034.1 in WSW 3.5 mph 7.9 mph 98 % 0.0 in
16:12 10.6 °F 11.0 °F 1034.1 in Calm   7.9 mph 98 % 0.0 in
16:17 10.6 °F 11.0 °F 1034.1 in Calm   4.7 mph 98 % 0.0 in
16:20 10.6 °F 11.0 °F 1034.1 in Calm   4.7 mph 98 % 0.0 in
16:22 10.6 °F 11.0 °F 1034.1 in Calm   4.7 mph 98 % 0.0 in
16:27 10.5 °F 11.0 °F 1035.1 in West 1.4 mph 5.0 mph 98 % 0.0 in
16:29 10.5 °F 11.0 °F 1035.1 in Calm   5.0 mph 98 % 0.0 in
16:31 10.5 °F 11.0 °F 1035.1 in Calm   5.0 mph 98 % 0.0 in
16:35 10.5 °F 11.0 °F 1035.1 in Calm   5.0 mph 98 % 0.0 in
16:38 10.5 °F 11.0 °F 1035.1 in Calm   1.4 mph 98 % 0.0 in
16:43 10.4 °F 10.0 °F 1035.1 in Calm     98 % 0.0 in
16:46 10.4 °F 10.0 °F 1035.1 in Calm     98 % 0.0 in
16:47 10.4 °F 10.0 °F 1035.1 in Calm     98 % 0.0 in
16:51 10.4 °F 10.0 °F 1035.1 in Calm     98 % 0.0 in
16:56 10.3 °F 10.0 °F 1036.1 in Calm     98 % 0.0 in
17:03 10.2 °F 10.0 °F 1036.1 in Calm     98 % 0.0 in
17:08 10.2 °F 10.0 °F 1036.1 in Calm     98 % 0.0 in
17:09 10.2 °F 10.0 °F 1036.1 in Calm     98 % 0.0 in
17:14 10.2 °F 10.0 °F 1035.1 in Calm     98 % 0.0 in
17:21 10.1 °F 10.0 °F 1035.1 in Calm     98 % 0.0 in
17:26 10.2 °F 10.0 °F 1035.1 in Calm     98 % 0.0 in
17:27 10.2 °F 10.0 °F 1035.1 in Calm     98 % 0.0 in
17:28 10.2 °F 10.0 °F 1035.1 in Calm     98 % 0.0 in
17:33 10.2 °F 10.0 °F 1035.1 in Calm     98 % 0.0 in
17:34 10.2 °F 10.0 °F 1035.1 in Calm     98 % 0.0 in
17:39 10.1 °F 10.0 °F 1035.1 in Calm     98 % 0.0 in
17:40 10.1 °F 10.0 °F 1035.1 in Calm     98 % 0.0 in
17:45 10.1 °F 10.0 °F 1035.1 in Calm     98 % 0.0 in
17:50 10.1 °F 10.0 °F 1035.1 in Calm     98 % 0.0 in
17:56 10.1 °F 10.0 °F 1035.1 in Calm     98 % 0.0 in
17:57 10.1 °F 10.0 °F 1035.1 in Calm     98 % 0.0 in
18:02 10.0 °F 10.0 °F 1035.1 in Calm     98 % 0.0 in
18:03 10.0 °F 10.0 °F 1035.1 in Calm     98 % 0.0 in
18:08 10.0 °F 10.0 °F 1035.1 in Calm     98 % 0.0 in
18:13 10.0 °F 10.0 °F 1035.1 in Calm     98 % 0.0 in
18:16 10.0 °F 10.0 °F 1035.1 in Calm     98 % 0.0 in
18:21 10.0 °F 10.0 °F 1035.1 in Calm     98 % 0.0 in
18:27 9.9 °F 10.0 °F 1035.1 in Calm     98 % 0.0 in
18:29 9.9 °F 10.0 °F 1035.1 in Calm     98 % 0.0 in
18:39 9.9 °F 10.0 °F 1035.1 in SSE 1.4 mph 2.6 mph 98 % 0.0 in
18:44 9.9 °F 10.0 °F 1035.1 in Calm   4.0 mph 98 % 0.0 in
18:49 10.0 °F 10.0 °F 1035.1 in Calm   4.0 mph 98 % 0.0 in
18:54 10.0 °F 10.0 °F 1035.1 in West 4.3 mph 4.3 mph 98 % 0.0 in
18:55 10.0 °F 10.0 °F 1035.1 in Calm   4.3 mph 98 % 0.0 in
18:56 10.0 °F 10.0 °F 1035.1 in Calm   4.3 mph 98 % 0.0 in
19:01 10.0 °F 10.0 °F 1035.1 in Calm   4.3 mph 98 % 0.0 in
19:05 9.9 °F 10.0 °F 1035.1 in Calm   2.1 mph 98 % 0.0 in
19:13 9.8 °F 10.0 °F 1035.1 in Calm     98 % 0.0 in
19:14 9.8 °F 10.0 °F 1035.1 in Calm     98 % 0.0 in
19:19 9.8 °F 10.0 °F 1035.1 in Calm     98 % 0.0 in
19:24 9.8 °F 10.0 °F 1035.1 in Calm     98 % 0.0 in
19:26 9.8 °F 10.0 °F 1036.1 in Calm     98 % 0.0 in
19:33 9.8 °F 10.0 °F 1036.1 in Calm     98 % 0.0 in
19:38 9.8 °F 10.0 °F 1036.1 in Calm     98 % 0.0 in
19:40 9.8 °F 10.0 °F 1036.1 in Calm     98 % 0.0 in
19:48 9.8 °F 10.0 °F 1036.1 in Calm     98 % 0.0 in
19:53 9.7 °F 10.0 °F 1036.1 in Calm     98 % 0.0 in
19:58 9.7 °F 10.0 °F 1035.1 in Calm     98 % 0.0 in
20:00 9.6 °F 10.0 °F 1035.1 in Calm     98 % 0.0 in
20:03 9.6 °F 10.0 °F 1035.1 in Calm     98 % 0.0 in
20:08 9.6 °F 10.0 °F 1035.1 in Calm     98 % 0.0 in
20:09 9.6 °F 10.0 °F 1035.1 in Calm     98 % 0.0 in
20:14 9.7 °F 10.0 °F 1036.1 in Calm     98 % 0.0 in
20:16 9.7 °F 10.0 °F 1036.1 in Calm     98 % 0.0 in
20:19 9.7 °F 10.0 °F 1036.1 in Calm     98 % 0.0 in
20:22 9.7 °F 10.0 °F 1036.1 in Calm     98 % 0.0 in
20:27 9.7 °F 10.0 °F 1036.1 in Calm     98 % 0.0 in
20:28 9.7 °F 10.0 °F 1036.1 in Calm     98 % 0.0 in
20:33 9.7 °F 10.0 °F 1036.1 in Calm     98 % 0.0 in
20:41 9.6 °F 10.0 °F 1036.1 in Calm     98 % 0.0 in
20:42 9.6 °F 10.0 °F 1036.1 in Calm     98 % 0.0 in
20:47 9.5 °F 10.0 °F 1036.1 in Calm     98 % 0.0 in
20:48 9.5 °F 10.0 °F 1036.1 in Calm     98 % 0.0 in
20:49 9.5 °F 10.0 °F 1036.1 in Calm     98 % 0.0 in
20:59 9.5 °F 10.0 °F 1037.1 in Calm     98 % 0.0 in
21:04 9.5 °F 10.0 °F 1037.1 in Calm     98 % 0.0 in
21:06 9.5 °F 10.0 °F 1037.1 in Calm     98 % 0.0 in
21:11 9.5 °F 10.0 °F 1037.1 in Calm     98 % 0.0 in
21:16 9.6 °F 10.0 °F 1037.1 in Calm     98 % 0.0 in
21:18 9.6 °F 10.0 °F 1037.1 in Calm     98 % 0.0 in
21:22 9.6 °F 10.0 °F 1037.1 in Calm     98 % 0.0 in
21:25 9.6 °F 10.0 °F 1037.1 in Calm     98 % 0.0 in
21:29 9.6 °F 10.0 °F 1037.1 in Calm     98 % 0.0 in
21:34 9.6 °F 10.0 °F 1037.1 in Calm     98 % 0.0 in
21:39 9.6 °F 10.0 °F 1037.1 in Calm     98 % 0.0 in
21:41 9.6 °F 10.0 °F 1037.1 in Calm     98 % 0.0 in
21:46 9.6 °F 10.0 °F 1037.1 in Calm     98 % 0.0 in
21:49 9.6 °F 10.0 °F 1037.1 in Calm     98 % 0.0 in
21:50 9.6 °F 10.0 °F 1037.1 in Calm     98 % 0.0 in
21:55 9.5 °F 10.0 °F 1037.1 in Calm     98 % 0.0 in
21:58 9.5 °F 10.0 °F 1037.1 in Calm     98 % 0.0 in
22:01 9.5 °F 10.0 °F 1037.1 in Calm     98 % 0.0 in
22:06 9.4 °F 9.0 °F 1037.1 in Calm     98 % 0.0 in
22:07 9.4 °F 9.0 °F 1037.1 in Calm     98 % 0.0 in
22:14 9.4 °F 9.0 °F 1037.1 in Calm     98 % 0.0 in
22:19 9.4 °F 9.0 °F 1037.1 in Calm     98 % 0.0 in
22:21 9.4 °F 9.0 °F 1037.1 in Calm     98 % 0.0 in
22:26 9.4 °F 9.0 °F 1037.1 in Calm     98 % 0.0 in
22:27 9.4 °F 9.0 °F 1037.1 in Calm     98 % 0.0 in
22:32 9.4 °F 9.0 °F 1037.1 in Calm     98 % 0.0 in
22:34 9.4 °F 9.0 °F 1037.1 in Calm     98 % 0.0 in
22:43 9.4 °F 9.0 °F 1037.1 in Calm     98 % 0.0 in
22:49 9.4 °F 9.0 °F 1037.1 in Calm     98 % 0.0 in
22:51 9.4 °F 9.0 °F 1037.1 in Calm     98 % 0.0 in
22:56 9.3 °F 9.0 °F 1037.1 in Calm     98 % 0.0 in
23:00 9.3 °F 9.0 °F 1037.1 in Calm     98 % 0.0 in
23:01 9.3 °F 9.0 °F 1037.1 in Calm     98 % 0.0 in
23:06 9.3 °F 9.0 °F 1037.1 in Calm     98 % 0.0 in
23:07 9.3 °F 9.0 °F 1037.1 in Calm     98 % 0.0 in
23:12 9.2 °F 9.0 °F 1037.1 in Calm     98 % 0.0 in
23:18 9.2 °F 9.0 °F 1037.1 in Calm     98 % 0.0 in
23:19 9.1 °F 9.0 °F 1037.1 in Calm     98 % 0.0 in
23:26 9.1 °F 9.0 °F 1037.1 in Calm     98 % 0.0 in
23:29 9.1 °F 9.0 °F 1037.1 in Calm     98 % 0.0 in
23:32 9.1 °F 9.0 °F 1037.1 in Calm     98 % 0.0 in
23:34 9.1 °F 9.0 °F 1037.1 in Calm     98 % 0.0 in
23:39 9.1 °F 9.0 °F 1037.1 in Calm     98 % 0.0 in
23:49 9.0 °F 9.0 °F 1037.1 in Calm   3.2 mph 98 % 0.0 in
23:51 9.0 °F 9.0 °F 1037.1 in Calm   3.2 mph 98 % 0.0 in
23:56 9.1 °F 9.0 °F 1037.1 in Calm   3.2 mph 98 % 0.0 in
Le Gheer Warneton
Courtoisie de Weather Underground - 2.75 mb

Mise a jour : 21/02/2018 12:10:11
Généré par Cumulus 1.9.4 (1099)